This is the latest recevied weather packets stored in our database for station/object K7TSD. If no packets are shown the sender has not sent any weather packets the latest 10 day(s).
| Time | Temp. | Humidity | Pressure | Rain* | Wind** | Luminosity | Snow |
|---|---|---|---|---|---|---|---|
| 1778272534 | 16.67° C | 51% | 1011.1 hPa | 0 mm | - | 428 W/m² | - |
| 1778272230 | 16.67° C | 54% | 1011.5 hPa | 0 mm | - | 809 W/m² | - |
| 1778271927 | 16.11° C | 51% | 1011.4 hPa | 0 mm | - | 623 W/m² | - |
| 1778271624 | 16.67° C | 54% | 1011.5 hPa | 0 mm | - | 345 W/m² | - |
| 1778271320 | 16.67° C | 56% | 1011.4 hPa | 0 mm | - | 364 W/m² | - |
| 1778271017 | 16.11° C | 51% | 1011.7 hPa | 0 mm | - | 622 W/m² | - |
| 1778270714 | 15.56° C | 54% | 1011.4 hPa | 0 mm | - | 550 W/m² | - |
| 1778270410 | 15.56° C | 53% | 1011.4 hPa | 0 mm | - | 305 W/m² | - |
| 1778270107 | 16.11° C | 54% | 1011.4 hPa | 0 mm | - | 344 W/m² | - |
| 1778269803 | 16.67° C | 51% | 1011.6 hPa | 0 mm | - | 327 W/m² | - |
| 1778269500 | 16.11° C | 53% | 1011.4 hPa | 0 mm | - | 539 W/m² | - |
| 1778269197 | 15° C | 54% | 1011.7 hPa | 0 mm | - | 226 W/m² | - |
| 1778268893 | 16.67° C | 54% | 1011.5 hPa | 0 mm | - | 235 W/m² | - |
| 1778268590 | 15.56° C | 52% | 1011.7 hPa | 0 mm | - | 285 W/m² | - |
| 1778268287 | 16.67° C | 53% | 1011.7 hPa | 0 mm | - | 482 W/m² | - |
| 1778267984 | 16.67° C | 55% | 1012 hPa | 0 mm | - | 341 W/m² | - |
| 1778267681 | 16.67° C | 50% | 1011.8 hPa | 0 mm | - | 688 W/m² | - |
| 1778267377 | 16.67° C | 52% | 1011.7 hPa | 0 mm | - | 768 W/m² | - |
| 1778267075 | 16.11° C | 52% | 1011.8 hPa | 0 mm | - | 452 W/m² | - |
| 1778266771 | 16.67° C | 54% | 1011.8 hPa | 0 mm | - | 661 W/m² | - |
| 1778266469 | 16.67° C | 53% | 1012.2 hPa | 0 mm | - | 890 W/m² | - |
| 1778266166 | 15.56° C | 54% | 1012 hPa | 0 mm | - | 717 W/m² | - |
| 1778265863 | 15° C | 59% | 1012.2 hPa | 0 mm | - | 459 W/m² | - |
| 1778265559 | 14.44° C | 56% | 1012.2 hPa | 0 mm | - | 305 W/m² | - |
| 1778265256 | 15° C | 57% | 1012.3 hPa | 0 mm | - | 264 W/m² | - |
* Rain latest hour (hover to see other rain measurements)
** Current wind speed in m/s (hover to see current wind gust speed)